sat.trackr.live / text

‹ back to catalog

STARLINK-34078

NORAD 64012 · 2025-101U

PAYLOAD ACTIVE UNKNOWN

§ Identity

Operator
Country
US
Launch date
2025-05-14
Launch site
AFETR
Launch vehicle
Mass (kg)
RCS (m²)

Purposes: comms

External: N2YO · Heavens-Above · Gunter

§ Orbital elements

Epoch: 2026-05-25T02:17:10.523616Z

Period
94.27 min
Inclination
42.9982°
Eccentricity
0.0000943
Mean motion
15.27576759 rev/d
Perigee alt
482.4 km
Apogee alt
483.7 km
Semi-major
6,861.2 km
B*
7.9308e-4
RAAN
286.1882°
Arg perigee
293.7335°
Mean anomaly
66.3418°
Rev number
5,874

§ Raw data

STARLINK-340781 64012U 25101U   26145.09526069  .00021623  00000+0  79308-3 0  99902 64012  42.9982 286.1882 0000943 293.7335  66.3418 15.27576759 58748

JSON: /api/v1/satellites/64012 · /tle

For live sub-satellite position, see the globe view (requires WebGL).

§ Visibility from observer

Set your observer location to see the next 7 days of passes ≥ 10°. The values pass through the URL so the page stays shareable.

No JS? Fill the form by hand. The geolocation button needs JavaScript.